sat.trackr.live / text

‹ back to catalog

ZHONGXING-1D

NORAD 49505 · 2021-114A

PAYLOAD ACTIVE UNKNOWN

§ Identity

Operator
Country
PRC
Launch date
2021-11-26
Launch site
XICLF
Launch vehicle
Mass (kg)
RCS (m²)

Purposes: comms

External: N2YO · Heavens-Above · Gunter

§ Orbital elements

Epoch: 2026-05-25T04:21:36.217152Z

Period
1,436.07 min
Inclination
0.0318°
Eccentricity
0.0000775
Mean motion
1.00273599 rev/d
Perigee alt
35,782.8 km
Apogee alt
35,789.4 km
Semi-major
42,164.2 km
B*
0.0000e+0
RAAN
69.5630°
Arg perigee
142.0972°
Mean anomaly
226.6771°
Rev number
1,658

§ Raw data

ZHONGXING-1D1 49505U 21114A   26145.18166918 -.00000338  00000+0  00000+0 0  99932 49505   0.0318  69.5630 0000775 142.0972 226.6771  1.00273599 16587

JSON: /api/v1/satellites/49505 · /tle

For live sub-satellite position, see the globe view (requires WebGL).

§ Visibility from observer

Set your observer location to see the next 7 days of passes ≥ 10°. The values pass through the URL so the page stays shareable.

No JS? Fill the form by hand. The geolocation button needs JavaScript.